Orbital Elements at Epoch 2459200.5 (2020-Dec-17.0) TDB
Reference: JPL 18 (heliocentric ecliptic J2000)
Element | Value | Uncertainty (1-sigma) | Units |
e | .06559533955676131 | 5.8832e-08 | |
a | 3.234957802802283 | 3.1159e-08 | au |
q | 3.022759647275672 | 1.9308e-07 | au |
i | 13.37066895840254 | 5.5058e-06 | deg |
node | 81.81682071367355 | 2.0838e-05 | deg |
peri | 336.2987222055989 | 4.1094e-05 | deg |
M | 202.6670120132625 | 3.8099e-05 | deg |
tp | 2460129.292386648256 (2023-Jul-03.79238665) | 0.0002321 | TDB |
period | 2125.20758343163 5.82 | 3.0705e-05 8.407e-08 | d yr |
n | .1693952171103673 | 2.4474e-09 | deg/d |
Q | 3.447155958328893 | 3.3203e-08 | au |
|
| | Orbit Determination Parameters
Additional Information
|